Showing default

QIANFAN-187, 69405

Orbit data source: Space-Track

QIANFAN-187, 69405 is a Chinese payload satellite in LEO that was launched on Fri, 05 Jun 2026 UTC via a CHANG ZHENG 8 launch vehicle from the Wenchang Satellite Launch Center (WSC). Payload-class satellites include a variety of spacecraft equipped with specific instruments for various scientific and technological missions. These include communications satellites like Starlink; space stations such as the ISS; scientific satellites like the Hubble; Earth observation satellites from companies like Planet Labs, Umbra, and HawkEye 360; GPS; miniature CubeSats for education and research; and military/defense satellites.

Loading next visibility...
Identifier
69405, 2026-125E
Orbit
LEO
Country
Flag of CNCN / PRC
Related business
Manufacturer
SECM?
Mission
Operational spacecraft
Bus & Motor
QIANFAN, Unknown motor
Mass
267 kg wet, ~267 kg dry
Launch date (UTC)
2026-06-05 (2 weeks ago)
Launch vehicle
CHANG ZHENG 8
Launch site
Wenchang Satellite Launch Center (WSC)
Object type
Payload
Rocket body
Debris
Shape & HBR
Unknown
Radar Cross Section
Large (>1 m²)

Expand to show TLE details & history
Last TLE update: 1 day ago

TLE from 1 day ago
0 QIANFAN-187
1 69405U 26125E   26170.72764104 -.02149587  00000-0 -11814+1 0  9990
2 69405  88.9950 280.1573 0017685 186.7116 173.3838 14.16025362  2069
Epoch: 2026-06-19T17:27Z
TLE epoch observation values (Epoch: 2026-06-19T17:27:48.185Z)
Latitude
-0.00003°
Longitude
110.25407°
Altitude
854.555 km
Speed
7.419 km/s
True Right ascension
18h 40m 37s
True Declination
0° 00' 00"
Sunlit
Object was in full shadow at epoch
Visualization orbit readout
Latitude
Unknown
Longitude
Unknown
Altitude
Unknown
Speed
Unknown
Apparent Right ascension
Unknown
Apparent Declination
Unknown
Sunlit
N/A
Visualization observer readout
Local Sidereal Time
08:32:53
Azimuth
Unknown
Elevation
Unknown
Doppler factor
Unknown
Orbital elements
Apogee altitude
848.541 km
Perigee altitude
823.025 km
Semi-major axis
7,213.92 km
Eccentricity
0.00177
Inclination
88.995°
RAAN
280.1573°
Arg. of periapsis
186.7116°
True anomaly
173.4071°
Mean anomaly
173.3838°
Eccentric anomaly
173.39545°
Mean motion
3.54231 °/min
Orbital period
101.63 mins
BSTAR
-1.1814
Loading maneuver chart data...
Computing Atmospheric mass density...
Loading historical data...
Loading historical data...
Loading historical data...
Loading historical data...
Loading historical data...
Loading historical data...
Loading historical data...

Documentation

Showing up to 5 results
|